OPS 4682 DEB, 19664

Orbit data source: Space-Track

OPS 4682 DEB, 19664 is space debris in LEO originally from a launch on Sat, 03 Apr 1965 UTC launched from the Air Force Western Test Range (AFWTR). Debris objects in space refer to the collection of defunct objects orbiting the Earth. Examples of debris include non-operational satellites, rocket bodies, and fragments generated from explosions, collisions, or faulty payload assembly.

Loading next visibility...
Identifier
19664, 1965-027AX
Orbit
LEO
Country
Flag of USUS
Related business
Manufacturer
Unknown
Mission
Spacecraft
Bus & Motor
Unknown
Mass
Unknown
Launch date (UTC)
1965-04-03 (61 years ago)
Launch vehicle
Unknown
Launch site
Air Force Western Test Range (AFWTR)
Object type
Payload
Rocket body
Debris
Shape & HBR
Unknown shape, 0.1 m
Radar Cross Section
Small (<0.1 m²)

Expand to show TLE details & history
Last TLE update: 16 hours ago

TLE from 16 hours ago
0 OPS 4682 DEB
1 19664U 65027AX  25349.29601006 -.00000108  00000-0 -36279-3 0  9994
2 19664  90.2203 353.7084 0025470 318.4603  60.6814 13.03710386 32571
Epoch: 2025-12-15T07:06Z
TLE epoch observation values (Epoch: 2025-12-15T07:06:15.269Z)
Latitude
19.3943°
Longitude
162.871°
Altitude
1,240.554 km
Speed
7.241 km/s
True Right ascension
23h 34m 31s
True Declination
19° 17' 37"
Sunlit
Object was in daylight at epoch
Visualization orbit readout
Latitude
Unknown
Longitude
Unknown
Altitude
Unknown
Speed
Unknown
Apparent Right ascension
Unknown
Apparent Declination
Unknown
Sunlit
N/A
Visualization observer readout
Local Sidereal Time
22:10:47
Azimuth
Unknown
Elevation
Unknown
Doppler factor
Unknown
Orbital elements
Apogee altitude
1,264.12 km
Perigee altitude
1,225.29 km
Semi-major axis
7,622.842 km
Eccentricity
0.00255
Inclination
90.2203°
RAAN
353.7084°
Arg. of periapsis
318.4603°
True anomaly
60.93628°
Mean anomaly
60.6814°
Eccentric anomaly
60.8088°
Mean motion
3.26113 °/min
Orbital period
110.39 mins
BSTAR
-0.00036279
Loading maneuver chart data...
Computing Atmospheric mass density...
Loading historical data...
Loading historical data...
Loading historical data...
Loading historical data...
Loading historical data...
Loading historical data...
Loading historical data...

Documentation

Showing up to 5 results
|